Regional Weather Roundup
Issued by NWS

Home | Current Version | Previous Version | Text Only | Print | Product List | Glossary On
Versions: 1 2 3 4 5 6 7 8 9 10 11 12 13 14 15 16 17 18 19 20 21 22 23 24 25 26 27 28 29 30 31 32 33 34 35 36 37 38 39 40 41 42 43 44 45 46 47 48 49 50
000
ASUS43 KOAX 070202
RWRNE

WEATHER ROUNDUP FOR NEBRASKA
NATIONAL WEATHER SERVICE OMAHA NE
800 PM CST FRI MAR 06 2015

NOTES: SATELLITE DATA IS BEING USED TO AUGMENT CLOUD COVER ABOVE
       12000 FEET.
       "FAIR" INDICATES FEW OR NO CLOUDS BELOW 12,000 FEET WITH NO
       SIGNIFICANT WEATHER AND/OR OBSTRUCTIONS TO VISIBILITY.

  * THESE STATIONS DO NOT REPORT WEATHER SUCH AS RAIN...SNOW OR FOG.

NEZ001>004-019>022-054>056-070300-
NEBRASKA PANHANDLE

CITY           SKY/WX    TMP DP  RH WIND       PRES   REMARKS
SCOTTSBLUFF    CLEAR     40  22  48 W9        30.21R WCI  34
ALLIANCE       CLEAR     32  15  49 W14       30.17R WCI  22
CHADRON        PTCLDY    37  24  59 W10       30.17R WCI  30
KIMBALL        CLEAR     40  20  45 W8        30.21S WCI  34
SIDNEY         CLEAR     41  19  41 NW13      30.22R
$$

NEZ057>060-069>072-079>082-070300-
SOUTHWEST NEBRASKA

CITY           SKY/WX    TMP DP  RH WIND       PRES   REMARKS
NORTH PLATTE   CLEAR     38  14  37 CALM      30.15S
IMPERIAL         N/A     46  14  27 NW7       30.19R
LEXINGTON      CLEAR     38  15  38 W10       30.14S WCI  31
MCCOOK         CLEAR     50  16  25 SW7       30.16S
$$

NEZ005>010-023>029-035>040-094-070300-
NORTH CENTRAL NEBRASKA

CITY           SKY/WX    TMP DP  RH WIND       PRES   REMARKS
VALENTINE      CLEAR     37  20  50 W8        30.11R WCI  31
AINSWORTH      CLEAR     38  17  42 SW9       30.10S WCI  31
BROKEN BOW     CLEAR     46  14  27 NW10      30.12S
ORD            PTCLDY    46  14  27 NW6       30.10R
$$

NEZ041-046>049-061>064-073>077-083>087-070300-
SOUTH CENTRAL NEBRASKA

CITY           SKY/WX    TMP DP  RH WIND       PRES   REMARKS
GRAND ISLAND   CLEAR     45  18  34 CALM      30.12S
AURORA         CLEAR     47  18  32 SW3       30.11S
HASTINGS       CLEAR     47  16  29 SW5       30.12F
HEBRON         CLEAR     46  16  30 SW6       30.15S
HOLDREGE       CLEAR     44  16  32 SW3       30.15R
KEARNEY *      CLEAR     48  18  29 SW8       30.13S
YORK           PTCLDY    45  19  36 SW6       30.12S
$$

NEZ011>018-030>034-042>045-070300-
NORTHEAST NEBRASKA

CITY           SKY/WX    TMP DP  RH WIND       PRES   REMARKS
NORFOLK        PTCLDY    42  16  34 SW6       30.08S
ALBION         MOCLDY    40  11  30 CALM      30.10S
BLAIR          MOCLDY    53  17  24 NE3       30.10S
COLUMBUS *     CLOUDY    39  14  35 CALM      30.12S
FREMONT        CLOUDY    49  17  27 CALM      30.11S
TEKAMAH        CLOUDY    41  21  44 CALM      30.11R
$$

NEZ050>053-065>068-078-088>093-070300-
SOUTHEAST NEBRASKA

CITY           SKY/WX    TMP DP  RH WIND       PRES   REMARKS
LINCOLN        MOCLDY    44  18  35 S3        30.13S
OMAHA EPPLEY   MOCLDY    44  20  38 N5        30.11R
BEATRICE       PTCLDY    42  17  37 SW7       30.14S
FALLS CITY     CLEAR     44  18  35 SW8       30.15S
NEBRASKA CITY  PTCLDY    43   8  24 SW9       30.13S
$$

NEZ044-045-051>053-067-070300-
OMAHA AREA

CITY           SKY/WX    TMP DP  RH WIND       PRES   REMARKS
OMAHA EPPLEY   MOCLDY    44  20  38 N5        30.11R
BLAIR          MOCLDY    53  17  24 NE3       30.10S
FREMONT        CLOUDY    49  17  27 CALM      30.11S
OFFUTT AFB     MOCLDY    37  23  57 NW2       30.10S
WAHOO          FAIR      48  15  26 SW7       30.10F
$$



USA.gov is the U.S. government's official web portal to all federal, state and local government web resources and services.